USTRANSCOM 7562


BIKF
Keflavík International Airport
Reykjavík, IS
KNGU
Norfolk Naval Station (Chambers Field)
Norfolk, US

Activity Log

Date Flight Route Aircraft Duration
No Flights Yet

Route Details

Aircraft Information
Primary: Boeing 757-200SF
Backup: Not Available
Route Data
Distance: 2503nm
Sched. Duration: 7h 00m
Avg. Duration: 0h 00m (-700m)
Times Flown: 0
Recm'd Route: RALOV1D RALOV RAKIS 6235N N6040 5944N 5650N YAY J580 YQY YQI J585 ACK J62 RIFLE J174 SWL RAPTR
Planned Altitude: 34,000ft
Origin Wx: BIKF 251330Z 01017KT 9999 SCT023 BKN032 BKN072 06/03 Q0989
Dest. Wx: KNGU 251259Z 03014G21KT 8SM OVC008 15/13 A3013 RMK AO2 SLP202 T01500128 $
Notes: USTRANSCOM CONTRACT FLIGHT

Financial History
Total Freight: 0lbs
Average Load: 0lbs/flt
Fuel Used: 0lbs
Avg. Fuel Used: 0lbs/flt
Fuel Expense: $0
Avg. Fuel Expense: $0
Avg. Fuel Cost: $0/lbs
Total Gross Income: $0
Pilot Pay: $0
Total Expenses: $0
Total Revenue: $0
Average Revenue: $0